Location: Newark
(51.2625°N, 13.3939°E)
Time: 15:21:11
(UTC+00:00)

Explorer 7 - Pass Details

Date: 12 November 2019
Orbit: 485 x 680 km, 50.3° (Epoch: 06 December)

Event Time Altitude Azimuth Distance (km) Brightness Sun altitude
Rises 06:53:08 0° 282° (WNW) 2,670 9.7 3.9°
Reaches altitude 10° 06:55:31 10° 274° (W) 1,749 8.9 4.2°
Maximum altitude 06:59:08 36° 207° (SSW) 811 7.9 4.7°
Drops below altitude 10° 07:02:38 10° 140° (SE) 1,679 11.3 5.1°
Sets 07:04:52 0° 131° (SE) 2,547 13.0 5.4°
